This is the latest recevied weather packets stored in our database for station/object ZR6G-15. If no packets are shown the sender has not sent any weather packets the latest 10 day(s).
| Time | Temp. | Humidity | Pressure | Rain* | Wind** | Luminosity | Snow |
|---|---|---|---|---|---|---|---|
| 1777994767 | 13.89° C | 53% | 1006 hPa | - | - | - | - |
| 1777994160 | 15° C | 52% | 1006.2 hPa | - | - | - | - |
| 1777993555 | 15° C | 52% | 1006 hPa | - | - | - | - |
| 1777992950 | 15° C | 54% | 1006.4 hPa | - | - | - | - |
| 1777992346 | 15° C | 51% | 1006.5 hPa | - | - | - | - |
| 1777991742 | 15° C | 54% | 1007.4 hPa | - | - | - | - |
| 1777991137 | 15° C | 53% | 1007.3 hPa | - | - | - | - |
| 1777990532 | 13.89° C | 53% | 1007.3 hPa | - | - | - | - |
| 1777989927 | 13.89° C | 52% | 1007.6 hPa | - | - | - | - |
| 1777989323 | 13.89° C | 54% | 1008.3 hPa | - | - | - | - |
| 1777988718 | 13.89° C | 51% | 1008.6 hPa | - | - | - | - |
| 1777988113 | 13.89° C | 52% | 1008.7 hPa | - | - | - | - |
| 1777987509 | 13.89° C | 51% | 1008.6 hPa | - | - | - | - |
| 1777986904 | 13.89° C | 50% | 1008 hPa | - | - | - | - |
| 1777986300 | 15° C | 51% | 1007.4 hPa | - | - | - | - |
| 1777985695 | 15.56° C | 51% | 1007.4 hPa | - | - | - | - |
| 1777985091 | 15.56° C | 50% | 1007 hPa | - | - | - | - |
| 1777984486 | 16.67° C | 52% | 1005.5 hPa | - | - | - | - |
| 1777983882 | 16.67° C | 46% | 1004.3 hPa | - | - | - | - |
| 1777983277 | 17.78° C | 43% | 1004 hPa | - | - | - | - |
| 1777982673 | 18.89° C | 38% | 1003.6 hPa | - | - | - | - |
| 1777982068 | 18.89° C | 37% | 1003.4 hPa | - | - | - | - |
| 1777981464 | 20° C | 36% | 1003.3 hPa | - | - | - | - |
| 1777980859 | 20° C | 36% | 1003 hPa | - | - | - | - |
| 1777980254 | 20° C | 35% | 1003.1 hPa | - | - | - | - |
* Rain since midnight (hover to see other rain measurements)
** Current wind speed in m/s (hover to see current wind gust speed)